Погода в Неа-Калликратии

Греция     40°18′36″N   23°03′43″E
темп.,
°C
ветер,
м/с
пор.,
м/с
влажн.,
%
обл.,
%
осадки,
мм/ч
давл.,
гПа
погр.,
м
13 мая, чт
чт1300:00+18в22605 0.0 1008202
03:00+18св00585 0.0 1008156
06:00+18сз33641 0.0 1007259
09:00+17сз33750 0.0 1008222
12:00+18юз22670 0.0 1008131
15:00+20юв34620 0.0 1007226
18:00+20юв556991 0.0 1007206
21:00+19вюв567230 0.0 1007151
14 мая, пт
пт1400:00+19всв33725 0.0 100895
03:00+19сз44710 0.0 1009133
06:00+17сз56796 0.0 1009220
09:00+17сз55690 0.0 1011211
12:00+19з22570 0.0 1012117
15:00+20юв22521 0.0 1011119
18:00+20юв5563100 0.0 1010116
21:00+19юв6876100 0.0 1010177
15 мая, сб
сб1500:00+19в7875100 0.0 1011240
03:00+18всв65798 0.0 1011249
06:00+18с2271100 0.0 1010144
09:00+18ссз3368100 0.0 1011192
12:00+18зсз2267100 0.0 1011123
15:00+15юв2280100 1.9 1011298
18:00+16сз2274100 0.0 1009181
21:00+17с557285 0.0 1009286
16 мая, вс
вс1600:00+17сз45729 0.0 1009380
03:00+16сз55755 0.0 1009298
06:00+16ссз55771 0.0 1008244
09:00+16сз56715 0.0 1010295
12:00+18зсз456515 0.0 1009256
15:00+19юз44595 0.0 1008157
18:00+21ююз45575 0.0 1007130
21:00+20ююз34675 0.0 100746
17 мая, пн
пн1700:00+20вюв236711 0.0 100819
03:00+20в22725 0.0 100816
06:00+19ссз22685 0.0 100838
09:00+19сз33675 0.0 1010146
12:00+19ююв11620 0.0 101087
15:00+21юв44620 0.0 1009187
18:00+20юв66735 0.0 1008163
21:00+20вюв447474 0.0 100960